• In Germany
  • List of Countries
  • For 7 days
  • Water Temperature
  • Satellite Maps
  • Weather Map
  • Weather Widgets
  • user-avatar
    Login

    Hourly Weather Useldange

    Today, 18 November, Saturday

    Time Temperature Precipitation Wind Pressure Humidity
    00:00 +2°C° 0 mm 1 mps 742 mmHg 92%
    01:00 +2°C° 0 mm 1 mps 742 mmHg 92%
    02:00 +2°C° 0 mm 1 mps 742 mmHg 92%
    03:00 +1°C° 0 mm 1 mps 742 mmHg 92%
    04:00 +1°C° 0 mm 1 mps 742 mmHg 93%
    05:00 +1°C° 0 mm 1 mps 741 mmHg 93%
    06:00 +1°C° 0 mm 1 mps 741 mmHg 93%
    07:00 +2°C° 0 mm 1 mps 741 mmHg 90%
    08:00 +2°C° 0 mm 2 mps 741 mmHg 86%
    09:00 +3°C° 0 mm 2 mps 742 mmHg 83%
    10:00 +3°C° 0 mm 3 mps 741 mmHg 79%
    11:00 +4°C° 0 mm 4 mps 741 mmHg 76%
    12:00 +5°C° 0 mm 5 mps 741 mmHg 72%
    13:00 +3°C° 0 mm 5 mps 740 mmHg 74%
    14:00 +3°C° 0 mm 5 mps 740 mmHg 76%
    15:00 +3°C° 0 mm 5 mps 739 mmHg 78%
    16:00 +4°C° 0 mm 4 mps 739 mmHg 81%
    17:00 +4°C° 0 mm 4 mps 739 mmHg 84%
    18:00 +4°C° 0 mm 4 mps 739 mmHg 86%
    19:00 +4°C° 0.3 mm 4 mps 739 mmHg 89%
    20:00 +4°C° 0.3 mm 4 mps 739 mmHg 92%
    21:00 +4°C° 0.3 mm 4 mps 738 mmHg 94%
    22:00 +4°C° 0.3 mm 4 mps 738 mmHg 95%
    23:00 +4°C° 0.3 mm 3 mps 738 mmHg 95%

    Tomorrow, 19 November, Sunday

    Time Temperature Precipitation Wind Pressure Humidity
    00:00 +4°C° 0.3 mm 3 mps 738 mmHg 96%
    01:00 +3°C° 0.1 mm 3 mps 738 mmHg 95%
    02:00 +3°C° 0.1 mm 3 mps 738 mmHg 95%
    03:00 +2°C° 0.1 mm 3 mps 738 mmHg 95%
    04:00 +2°C° 0 mm 3 mps 738 mmHg 95%
    05:00 +1°C° 0 mm 3 mps 738 mmHg 94%
    06:00 +1°C° 0 mm 3 mps 738 mmHg 94%
    07:00 +1°C° 0 mm 3 mps 739 mmHg 91%
    08:00 +2°C° 0 mm 3 mps 739 mmHg 89%
    09:00 +1°C° 0 mm 4 mps 740 mmHg 86%
    10:00 +3°C° 0 mm 4 mps 740 mmHg 83%
    11:00 +4°C° 0 mm 4 mps 740 mmHg 80%
    12:00 +5°C° 0 mm 4 mps 740 mmHg 77%
    13:00 +5°C° 0.1 mm 4 mps 740 mmHg 80%
    14:00 +4°C° 0.1 mm 3 mps 740 mmHg 83%
    15:00 +4°C° 0.1 mm 3 mps 741 mmHg 85%
    16:00 +3°C° 0 mm 3 mps 741 mmHg 88%
    17:00 +2°C° 0 mm 3 mps 741 mmHg 91%
    18:00 +1°C° 0 mm 3 mps 741 mmHg 94%
    19:00 +1°C° 0 mm 3 mps 741 mmHg 94%
    20:00 +2°C° 0 mm 2 mps 742 mmHg 95%
    21:00 +1°C° 0 mm 2 mps 742 mmHg 95%
    22:00 +1°C° 0 mm 2 mps 742 mmHg 95%
    23:00 +1°C° 0 mm 2 mps 742 mmHg 95%

    Day after tomorrow, 20 November, Monday

    Time Temperature Precipitation Wind Pressure Humidity
    00:00 +1°C° 0 mm 2 mps 742 mmHg 95%
    01:00 -1°C° 0 mm 2 mps 742 mmHg 95%
    02:00 -1°C° 0 mm 2 mps 742 mmHg 94%
    03:00 -1°C° 0 mm 2 mps 741 mmHg 94%
    04:00 -1°C° 0 mm 2 mps 741 mmHg 93%
    05:00 -1°C° 0 mm 3 mps 741 mmHg 92%
    06:00 0°C° 0 mm 3 mps 740 mmHg 91%
    07:00 0°C° 0 mm 4 mps 740 mmHg 90%
    08:00 0°C° 0 mm 4 mps 740 mmHg 89%
    09:00 +1°C° 0 mm 5 mps 740 mmHg 89%
    10:00 +2°C° 0 mm 5 mps 739 mmHg 89%
    11:00 +3°C° 0 mm 6 mps 739 mmHg 90%
    12:00 +4°C° 0 mm 6 mps 738 mmHg 91%
    13:00 +4°C° 0.1 mm 6 mps 738 mmHg 91%
    14:00 +5°C° 0.1 mm 6 mps 737 mmHg 91%
    15:00 +5°C° 0.1 mm 6 mps 737 mmHg 92%
    16:00 +5°C° 0.1 mm 7 mps 736 mmHg 92%
    17:00 +5°C° 0.1 mm 7 mps 736 mmHg 93%
    18:00 +5°C° 0.1 mm 7 mps 735 mmHg 93%
    19:00 +5°C° 1.4 mm 7 mps 735 mmHg 93%
    20:00 +5°C° 1.4 mm 7 mps 735 mmHg 93%
    21:00 +6°C° 1.4 mm 7 mps 735 mmHg 93%
    22:00 +6°C° 0.3 mm 7 mps 735 mmHg 94%
    23:00 +6°C° 0.3 mm 7 mps 735 mmHg 94%

    21 November, Tuesday

    Time Temperature Precipitation Wind Pressure Humidity
    00:00 +7°C° 0.3 mm 6 mps 735 mmHg 94%
    01:00 +8°C° 0.2 mm 6 mps 735 mmHg 95%
    02:00 +8°C° 0.2 mm 6 mps 735 mmHg 95%
    03:00 +8°C° 0.2 mm 5 mps 735 mmHg 95%
    04:00 +8°C° 0.2 mm 5 mps 735 mmHg 96%
    05:00 +8°C° 0.2 mm 5 mps 735 mmHg 96%
    06:00 +8°C° 0.2 mm 5 mps 735 mmHg 96%
    07:00 +8°C° 0.1 mm 5 mps 736 mmHg 96%
    08:00 +8°C° 0.1 mm 5 mps 736 mmHg 95%
    09:00 +8°C° 0.1 mm 5 mps 736 mmHg 95%
    10:00 +8°C° 0.1 mm 5 mps 736 mmHg 95%
    11:00 +7°C° 0.1 mm 5 mps 736 mmHg 95%
    12:00 +7°C° 0.1 mm 5 mps 736 mmHg 95%
    13:00 +7°C° 0.1 mm 5 mps 736 mmHg 94%
    14:00 +7°C° 0.1 mm 5 mps 736 mmHg 93%
    15:00 +6°C° 0.1 mm 5 mps 735 mmHg 93%
    16:00 +6°C° 0 mm 5 mps 735 mmHg 93%
    17:00 +6°C° 0 mm 4 mps 735 mmHg 93%
    18:00 +6°C° 0 mm 4 mps 735 mmHg 93%
    19:00 +6°C° 0 mm 4 mps 735 mmHg 93%
    20:00 +6°C° 0 mm 4 mps 735 mmHg 93%
    21:00 +6°C° 0 mm 4 mps 735 mmHg 93%
    22:00 +6°C° 0 mm 4 mps 735 mmHg 94%
    23:00 +5°C° 0 mm 4 mps 735 mmHg 94%

    22 November, Wednesday

    Time Temperature Precipitation Wind Pressure Humidity
    00:00 +5°C° 0 mm 3 mps 735 mmHg 94%
    01:00 +5°C° 0 mm 3 mps 735 mmHg 94%
    02:00 +5°C° 0 mm 3 mps 735 mmHg 95%
    03:00 +7°C° 0 mm 3 mps 735 mmHg 95%
    04:00 +5°C° 0 mm 3 mps 735 mmHg 95%
    05:00 +5°C° 0 mm 3 mps 735 mmHg 95%
    06:00 +5°C° 0 mm 3 mps 735 mmHg 95%
    07:00 +7°C° 0 mm 3 mps 735 mmHg 94%
    08:00 +6°C° 0 mm 4 mps 735 mmHg 93%
    09:00 +6°C° 0 mm 4 mps 735 mmHg 92%
    10:00 +7°C° 0 mm 4 mps 735 mmHg 89%
    11:00 +7°C° 0 mm 4 mps 735 mmHg 86%
    12:00 +8°C° 0 mm 4 mps 734 mmHg 83%
    13:00 +9°C° 0 mm 3 mps 734 mmHg 84%
    14:00 +9°C° 0 mm 3 mps 733 mmHg 86%
    15:00 +8°C° 0 mm 2 mps 733 mmHg 87%
    16:00 +7°C° 0 mm 2 mps 733 mmHg 89%
    17:00 +6°C° 0 mm 2 mps 732 mmHg 90%
    18:00 +5°C° 0 mm 2 mps 732 mmHg 91%
    19:00 +5°C° 0 mm 2 mps 732 mmHg 91%
    20:00 +5°C° 0 mm 2 mps 732 mmHg 90%
    21:00 +4°C° 0 mm 3 mps 732 mmHg 89%
    22:00 +4°C° 0 mm 3 mps 731 mmHg 88%
    23:00 +4°C° 0 mm 3 mps 731 mmHg 88%

    23 November, Thursday

    Time Temperature Precipitation Wind Pressure Humidity
    00:00 +4°C° 0 mm 3 mps 731 mmHg 88%
    01:00 +4°C° 0 mm 3 mps 731 mmHg 89%
    02:00 +5°C° 0 mm 4 mps 730 mmHg 90%
    03:00 +5°C° 0 mm 4 mps 730 mmHg 91%
    04:00 +6°C° 0 mm 4 mps 730 mmHg 90%
    05:00 +6°C° 0 mm 5 mps 730 mmHg 89%
    06:00 +6°C° 0 mm 5 mps 730 mmHg 87%
    07:00 +7°C° 0 mm 6 mps 730 mmHg 84%
    08:00 +8°C° 0 mm 7 mps 730 mmHg 80%
    09:00 +9°C° 0 mm 7 mps 731 mmHg 76%
    10:00 +10°C° 0 mm 7 mps 731 mmHg 75%
    11:00 +11°C° 0 mm 7 mps 731 mmHg 74%
    12:00 +12°C° 0 mm 7 mps 731 mmHg 73%
    13:00 +12°C° 0 mm 7 mps 732 mmHg 74%
    14:00 +11°C° 0 mm 6 mps 732 mmHg 76%
    15:00 +12°C° 0 mm 5 mps 732 mmHg 78%
    16:00 +12°C° 0 mm 5 mps 732 mmHg 79%
    17:00 +10°C° 0 mm 5 mps 733 mmHg 80%
    18:00 +11°C° 0 mm 4 mps 733 mmHg 80%
    19:00 +11°C° 0 mm 4 mps 733 mmHg 82%
    20:00 +10°C° 0 mm 4 mps 734 mmHg 83%
    21:00 +10°C° 0 mm 4 mps 734 mmHg 85%
    22:00 +10°C° 0 mm 4 mps 734 mmHg 86%
    23:00 +8°C° 0 mm 4 mps 734 mmHg 86%
    Show more